Time,TemperatureF,DewpointF,PressureIn,WindDirection,WindDirectionDegrees,WindSpeedMPH,WindSpeedGustMPH,Humidity,HourlyPrecipIn,Conditions,Clouds,dailyrainin,SolarRadiationWatts/m^2,SoftwareType,DateUTC
2013-01-17 00:09:00,33.7,29.4,30.14,West,277,7.0,7.0,84,0.00,,,0.00,0,Wunderground v.1.15,2013-01-17 06:09:00,
2013-01-17 00:14:00,33.7,29.4,30.14,West,274,6.0,7.0,84,0.00,,,0.00,0,Wunderground v.1.15,2013-01-17 06:14:00,
2013-01-17 00:19:00,33.8,29.5,30.15,West,274,6.0,6.0,84,0.00,,,0.00,0,Wunderground v.1.15,2013-01-17 06:19:00,
2013-01-17 00:24:00,33.8,29.5,30.15,West,272,5.0,6.0,84,0.00,,,0.00,0,Wunderground v.1.15,2013-01-17 06:24:00,
2013-01-17 00:29:00,33.7,29.4,30.15,West,271,5.0,5.0,84,0.00,,,0.00,0,Wunderground v.1.15,2013-01-17 06:29:00,
2013-01-17 00:34:00,33.7,29.4,30.15,West,271,6.0,6.0,84,0.00,,,0.00,0,Wunderground v.1.15,2013-01-17 06:34:00,
2013-01-17 00:39:00,33.5,29.2,30.16,West,272,6.0,6.0,84,0.00,,,0.00,0,Wunderground v.1.15,2013-01-17 06:39:00,
2013-01-17 00:44:00,33.3,29.0,30.16,West,272,5.0,6.0,84,0.00,,,0.00,0,Wunderground v.1.15,2013-01-17 06:44:00,
2013-01-17 00:49:00,33.0,29.0,30.17,West,272,5.0,5.0,85,0.00,,,0.00,0,Wunderground v.1.15,2013-01-17 06:49:00,
2013-01-17 00:54:00,32.7,28.7,30.17,West,272,5.0,5.0,85,0.00,,,0.00,0,Wunderground v.1.15,2013-01-17 06:54:00,
2013-01-17 00:59:00,32.5,28.8,30.17,West,273,5.0,7.0,86,0.00,,,0.00,0,Wunderground v.1.15,2013-01-17 06:59:00,
2013-01-17 01:04:00,32.4,28.7,30.17,West,276,6.0,7.0,86,0.00,,,0.00,0,Wunderground v.1.15,2013-01-17 07:04:00,
2013-01-17 01:09:00,32.4,29.0,30.17,West,280,6.0,6.0,87,0.00,,,0.00,0,Wunderground v.1.15,2013-01-17 07:09:00,
2013-01-17 01:14:00,32.3,28.9,30.17,West,281,6.0,7.0,87,0.00,,,0.00,0,Wunderground v.1.15,2013-01-17 07:14:00,
2013-01-17 01:19:00,32.1,28.7,30.18,WNW,282,6.0,6.0,87,0.00,,,0.00,0,Wunderground v.1.15,2013-01-17 07:19:00,
2013-01-17 01:24:00,31.9,28.5,30.18,WNW,284,7.0,7.0,87,0.00,,,0.00,0,Wunderground v.1.15,2013-01-17 07:24:00,
2013-01-17 01:29:00,31.8,28.4,30.18,WNW,284,6.0,6.0,87,0.00,,,0.00,0,Wunderground v.1.15,2013-01-17 07:29:00,
2013-01-17 01:34:00,31.7,28.3,30.18,WNW,284,6.0,6.0,87,0.00,,,0.00,0,Wunderground v.1.15,2013-01-17 07:34:00,
2013-01-17 01:44:00,31.5,28.4,30.19,WNW,294,6.0,7.0,88,0.00,,,0.00,0,Wunderground v.1.15,2013-01-17 07:44:00,
2013-01-17 01:49:00,31.3,28.2,30.19,WNW,298,7.0,7.0,88,0.00,,,0.00,0,Wunderground v.1.15,2013-01-17 07:49:00,
2013-01-17 01:54:00,31.3,28.4,30.19,WNW,302,7.0,8.0,89,0.00,,,0.00,0,Wunderground v.1.15,2013-01-17 07:54:00,
2013-01-17 01:59:00,31.4,28.5,30.19,WNW,303,7.0,7.0,89,0.00,,,0.00,0,Wunderground v.1.15,2013-01-17 07:59:00,
2013-01-17 02:04:00,31.5,28.9,30.19,NW,306,6.0,7.0,90,0.00,,,0.00,0,Wunderground v.1.15,2013-01-17 08:04:00,
2013-01-17 02:14:00,31.8,29.2,30.20,NW,311,5.0,7.0,90,0.00,,,0.00,0,Wunderground v.1.15,2013-01-17 08:14:00,
2013-01-17 02:19:00,31.9,29.3,30.20,NW,316,5.0,5.0,90,0.00,,,0.00,0,Wunderground v.1.15,2013-01-17 08:19:00,
2013-01-17 02:24:00,32.1,29.8,30.20,NW,318,5.0,5.0,91,0.00,,,0.00,0,Wunderground v.1.15,2013-01-17 08:24:00,
2013-01-17 02:29:00,32.1,29.8,30.20,NW,318,5.0,6.0,91,0.00,,,0.00,0,Wunderground v.1.15,2013-01-17 08:29:00,
2013-01-17 02:34:00,32.1,29.8,30.20,NW,325,5.0,6.0,91,0.00,,,0.00,0,Wunderground v.1.15,2013-01-17 08:34:00,
2013-01-17 02:39:00,32.3,30.0,30.21,NNW,328,5.0,5.0,91,0.00,,,0.00,0,Wunderground v.1.15,2013-01-17 08:39:00,
2013-01-17 02:49:00,32.4,30.3,30.21,NNW,327,4.0,4.0,92,0.00,,,0.00,0,Wunderground v.1.15,2013-01-17 08:49:00,
2013-01-17 02:54:00,32.4,30.1,30.22,NNW,331,4.0,5.0,91,0.00,,,0.00,0,Wunderground v.1.15,2013-01-17 08:54:00,
2013-01-17 02:59:00,32.3,30.0,30.22,NNW,332,5.0,5.0,91,0.00,,,0.00,0,Wunderground v.1.15,2013-01-17 08:59:00,
2013-01-17 03:04:00,32.3,30.0,30.22,NNW,332,5.0,5.0,91,0.00,,,0.00,0,Wunderground v.1.15,2013-01-17 09:04:00,
2013-01-17 03:09:00,32.2,29.9,30.22,NNW,334,5.0,6.0,91,0.00,,,0.00,0,Wunderground v.1.15,2013-01-17 09:09:00,
2013-01-17 03:19:00,32.1,29.8,30.22,NNW,335,5.0,5.0,91,0.00,,,0.00,0,Wunderground v.1.15,2013-01-17 09:19:00,
2013-01-17 03:24:00,32.0,29.7,30.22,NNW,328,5.0,6.0,91,0.00,,,0.00,0,Wunderground v.1.15,2013-01-17 09:24:00,
2013-01-17 03:29:00,31.9,29.6,30.22,NNW,329,5.0,7.0,91,0.00,,,0.00,0,Wunderground v.1.15,2013-01-17 09:29:00,
2013-01-17 03:34:00,31.7,29.4,30.22,NNW,331,5.0,7.0,91,0.00,,,0.00,0,Wunderground v.1.15,2013-01-17 09:34:00,
2013-01-17 03:39:00,31.6,29.3,30.23,NNW,332,5.0,5.0,91,0.00,,,0.00,0,Wunderground v.1.15,2013-01-17 09:39:00,
2013-01-17 03:44:00,31.4,29.1,30.23,NNW,333,5.0,5.0,91,0.00,,,0.00,0,Wunderground v.1.15,2013-01-17 09:44:00,
2013-01-17 03:54:00,31.0,28.7,30.24,NNW,329,5.0,5.0,91,0.00,,,0.00,0,Wunderground v.1.15,2013-01-17 09:54:00,
2013-01-17 03:59:00,30.8,28.5,30.24,NNW,329,4.0,4.0,91,0.00,,,0.00,0,Wunderground v.1.15,2013-01-17 09:59:00,
2013-01-17 04:04:00,30.6,28.3,30.24,NNW,329,4.0,4.0,91,0.00,,,0.00,0,Wunderground v.1.15,2013-01-17 10:04:00,
2013-01-17 04:09:00,30.4,28.1,30.24,NNW,329,3.0,4.0,91,0.00,,,0.00,0,Wunderground v.1.15,2013-01-17 10:09:00,
2013-01-17 04:14:00,30.3,28.0,30.24,NNW,329,4.0,5.0,91,0.00,,,0.00,0,Wunderground v.1.15,2013-01-17 10:14:00,
2013-01-17 04:24:00,30.2,28.2,30.25,NNW,329,5.0,5.0,92,0.00,,,0.00,0,Wunderground v.1.15,2013-01-17 10:24:00,
2013-01-17 04:29:00,30.2,28.2,30.25,NNW,329,4.0,4.0,92,0.00,,,0.00,0,Wunderground v.1.15,2013-01-17 10:29:00,
2013-01-17 04:34:00,30.4,28.4,30.25,NNW,329,4.0,4.0,92,0.00,,,0.00,0,Wunderground v.1.15,2013-01-17 10:34:00,
2013-01-17 04:39:00,30.6,28.6,30.25,NNW,333,5.0,6.0,92,0.00,,,0.00,0,Wunderground v.1.15,2013-01-17 10:39:00,
2013-01-17 04:44:00,31.0,28.7,30.25,NNW,333,6.0,6.0,91,0.00,,,0.00,0,Wunderground v.1.15,2013-01-17 10:44:00,
2013-01-17 04:49:00,31.4,29.1,30.26,NNW,331,7.0,9.0,91,0.00,,,0.00,0,Wunderground v.1.15,2013-01-17 10:49:00,
2013-01-17 04:59:00,32.1,29.5,30.26,NNW,333,6.0,6.0,90,0.00,,,0.00,0,Wunderground v.1.15,2013-01-17 10:59:00,
2013-01-17 05:04:00,32.3,29.7,30.26,NNW,340,5.0,6.0,90,0.00,,,0.00,0,Wunderground v.1.15,2013-01-17 11:04:00,
2013-01-17 05:09:00,32.4,29.5,30.26,NNW,346,5.0,5.0,89,0.00,,,0.00,0,Wunderground v.1.15,2013-01-17 11:09:00,
2013-01-17 05:14:00,32.5,29.6,30.27,NNW,338,5.0,6.0,89,0.00,,,0.00,0,Wunderground v.1.15,2013-01-17 11:14:00,
2013-01-17 05:19:00,32.6,29.7,30.27,NNW,336,5.0,5.0,89,0.00,,,0.00,0,Wunderground v.1.15,2013-01-17 11:19:00,
2013-01-17 05:29:00,32.4,29.2,30.28,NNW,332,7.0,7.0,88,0.00,,,0.00,0,Wunderground v.1.15,2013-01-17 11:29:00,
2013-01-17 05:34:00,32.0,28.8,30.28,NW,324,8.0,10.0,88,0.00,,,0.00,0,Wunderground v.1.15,2013-01-17 11:34:00,
2013-01-17 05:39:00,31.5,28.1,30.29,NW,323,9.0,9.0,87,0.00,,,0.00,0,Wunderground v.1.15,2013-01-17 11:39:00,
2013-01-17 05:44:00,31.1,27.7,30.29,NNW,329,9.0,13.0,87,0.00,,,0.00,0,Wunderground v.1.15,2013-01-17 11:44:00,
2013-01-17 05:49:00,30.6,27.2,30.30,NW,321,9.0,10.0,87,0.00,,,0.00,0,Wunderground v.1.15,2013-01-17 11:49:00,
2013-01-17 05:54:00,30.1,26.7,30.30,NW,323,10.0,10.0,87,0.00,,,0.00,0,Wunderground v.1.15,2013-01-17 11:54:00,
2013-01-17 06:04:00,29.1,25.7,30.30,NW,325,9.0,10.0,87,0.00,,,0.00,0,Wunderground v.1.15,2013-01-17 12:04:00,
2013-01-17 06:09:00,28.8,25.4,30.31,NW,325,8.0,8.0,87,0.00,,,0.00,0,Wunderground v.1.15,2013-01-17 12:09:00,
2013-01-17 06:14:00,28.4,25.0,30.31,NNW,334,7.0,8.0,87,0.00,,,0.00,0,Wunderground v.1.15,2013-01-17 12:14:00,
2013-01-17 06:19:00,28.1,25.0,30.31,NNW,329,5.0,5.0,88,0.00,,,0.00,0,Wunderground v.1.15,2013-01-17 12:19:00,
2013-01-17 06:24:00,27.9,24.8,30.31,NNW,327,5.0,5.0,88,0.00,,,0.00,0,Wunderground v.1.15,2013-01-17 12:24:00,
2013-01-17 06:34:00,27.5,24.4,30.32,NNW,331,5.0,5.0,88,0.00,,,0.00,0,Wunderground v.1.15,2013-01-17 12:34:00,
2013-01-17 06:39:00,27.3,23.9,30.32,NNW,337,5.0,5.0,87,0.00,,,0.00,0,Wunderground v.1.15,2013-01-17 12:39:00,
2013-01-17 06:44:00,27.2,23.8,30.32,NNW,337,6.0,7.0,87,0.00,,,0.00,0,Wunderground v.1.15,2013-01-17 12:44:00,
2013-01-17 06:49:00,27.0,23.4,30.33,NNW,340,6.0,6.0,86,0.00,,,0.00,0,Wunderground v.1.15,2013-01-17 12:49:00,
2013-01-17 06:54:00,26.9,23.5,30.33,NNW,336,5.0,6.0,87,0.00,,,0.00,0,Wunderground v.1.15,2013-01-17 12:54:00,
2013-01-17 06:59:00,26.6,23.3,30.33,NNW,334,4.0,5.0,87,0.00,,,0.00,0,Wunderground v.1.15,2013-01-17 12:59:00,
2013-01-17 07:04:00,26.4,23.1,30.33,NNW,332,5.0,5.0,87,0.00,,,0.00,0,Wunderground v.1.15,2013-01-17 13:04:00,
2013-01-17 07:09:00,26.2,22.9,30.34,NNW,330,5.0,5.0,87,0.00,,,0.00,0,Wunderground v.1.15,2013-01-17 13:09:00,
2013-01-17 07:14:00,26.0,22.9,30.34,NNW,336,5.0,5.0,88,0.00,,,0.00,0,Wunderground v.1.15,2013-01-17 13:14:00,
2013-01-17 07:19:00,25.8,22.7,30.34,NNW,331,5.0,5.0,88,0.00,,,0.00,0,Wunderground v.1.15,2013-01-17 13:19:00,
2013-01-17 07:24:00,25.6,22.5,30.34,NNW,333,5.0,5.0,88,0.00,,,0.00,5,Wunderground v.1.15,2013-01-17 13:24:00,
2013-01-17 07:29:00,25.5,22.4,30.34,NNW,329,5.0,6.0,88,0.00,,,0.00,9,Wunderground v.1.15,2013-01-17 13:29:00,
2013-01-17 07:39:00,25.3,22.0,30.35,NNW,331,6.0,6.0,87,0.00,,,0.00,16,Wunderground v.1.15,2013-01-17 13:39:00,
2013-01-17 07:44:00,25.3,22.0,30.35,NNW,331,6.0,6.0,87,0.00,,,0.00,19,Wunderground v.1.15,2013-01-17 13:44:00,
2013-01-17 07:49:00,25.3,22.0,30.35,NNW,329,5.0,5.0,87,0.00,,,0.00,25,Wunderground v.1.15,2013-01-17 13:49:00,
2013-01-17 07:54:00,25.2,21.9,30.36,NNW,337,5.0,5.0,87,0.00,,,0.00,33,Wunderground v.1.15,2013-01-17 13:54:00,
2013-01-17 07:59:00,25.3,21.7,30.36,NNW,327,5.0,5.0,86,0.00,,,0.00,44,Wunderground v.1.15,2013-01-17 13:59:00,
2013-01-17 08:09:00,25.4,21.5,30.37,NNW,335,5.0,5.0,85,0.00,,,0.00,70,Wunderground v.1.15,2013-01-17 14:09:00,
2013-01-17 08:14:00,25.5,21.6,30.37,NW,325,5.0,7.0,85,0.00,,,0.00,84,Wunderground v.1.15,2013-01-17 14:14:00,
2013-01-17 08:19:00,25.6,21.7,30.37,NW,325,5.0,9.0,85,0.00,,,0.00,98,Wunderground v.1.15,2013-01-17 14:19:00,
2013-01-17 08:24:00,25.7,21.5,30.37,NNW,342,5.0,9.0,84,0.00,,,0.00,114,Wunderground v.1.15,2013-01-17 14:24:00,
2013-01-17 08:29:00,25.8,21.6,30.38,NNW,338,6.0,7.0,84,0.00,,,0.00,132,Wunderground v.1.15,2013-01-17 14:29:00,
2013-01-17 08:34:00,25.9,21.2,30.38,NNW,328,6.0,7.0,82,0.00,,,0.00,148,Wunderground v.1.15,2013-01-17 14:34:00,
2013-01-17 08:44:00,26.1,21.1,30.39,NNW,333,6.0,6.0,81,0.00,,,0.00,183,Wunderground v.1.15,2013-01-17 14:44:00,
2013-01-17 08:49:00,26.3,21.0,30.39,NNW,331,5.0,5.0,80,0.00,,,0.00,199,Wunderground v.1.15,2013-01-17 14:49:00,
2013-01-17 08:54:00,26.5,21.2,30.40,NW,325,5.0,5.0,80,0.00,,,0.00,211,Wunderground v.1.15,2013-01-17 14:54:00,
2013-01-17 08:59:00,26.6,21.0,30.40,NNW,334,5.0,5.0,79,0.00,,,0.00,225,Wunderground v.1.15,2013-01-17 14:59:00,
2013-01-17 09:09:00,26.9,21.0,30.40,NNW,335,6.0,6.0,78,0.00,,,0.00,250,Wunderground v.1.15,2013-01-17 15:09:00,
2013-01-17 09:14:00,27.1,21.2,30.40,NW,325,5.0,6.0,78,0.00,,,0.00,264,Wunderground v.1.15,2013-01-17 15:14:00,
2013-01-17 09:19:00,27.2,20.9,30.40,NNW,337,5.0,6.0,77,0.00,,,0.00,276,Wunderground v.1.15,2013-01-17 15:19:00,
2013-01-17 09:24:00,27.2,20.3,30.40,NNW,327,7.0,8.0,75,0.00,,,0.00,288,Wunderground v.1.15,2013-01-17 15:24:00,
2013-01-17 09:29:00,27.3,20.7,30.40,NNW,333,7.0,7.0,76,0.00,,,0.00,299,Wunderground v.1.15,2013-01-17 15:29:00,
2013-01-17 09:34:00,27.4,20.5,30.40,NNW,331,7.0,7.0,75,0.00,,,0.00,311,Wunderground v.1.15,2013-01-17 15:34:00,
2013-01-17 09:39:00,27.6,19.8,30.40,NNW,333,6.0,6.0,72,0.00,,,0.00,323,Wunderground v.1.15,2013-01-17 15:39:00,
2013-01-17 09:49:00,28.1,19.9,30.40,NNW,333,6.0,6.0,71,0.00,,,0.00,346,Wunderground v.1.15,2013-01-17 15:49:00,
2013-01-17 09:54:00,28.4,19.9,30.41,NW,320,6.0,13.0,70,0.00,,,0.00,357,Wunderground v.1.15,2013-01-17 15:54:00,
2013-01-17 09:59:00,28.5,20.3,30.41,NW,325,7.0,7.0,71,0.00,,,0.00,367,Wunderground v.1.15,2013-01-17 15:59:00,
2013-01-17 10:09:00,28.6,20.4,30.42,NNW,330,10.0,10.0,71,0.00,,,0.00,385,Wunderground v.1.15,2013-01-17 16:09:00,
2013-01-17 10:14:00,28.5,20.0,30.42,NNW,330,11.0,12.0,70,0.00,,,0.00,396,Wunderground v.1.15,2013-01-17 16:14:00,
2013-01-17 10:24:00,28.6,19.4,30.42,NNW,340,10.0,11.0,68,0.00,,,0.00,411,Wunderground v.1.15,2013-01-17 16:24:00,
2013-01-17 10:29:00,28.5,18.6,30.42,NW,320,11.0,11.0,66,0.00,,,0.00,420,Wunderground v.1.15,2013-01-17 16:29:00,
2013-01-17 10:34:00,28.7,19.5,30.42,NNW,327,11.0,11.0,68,0.00,,,0.00,429,Wunderground v.1.15,2013-01-17 16:34:00,
2013-01-17 10:39:00,28.9,19.3,30.42,NW,322,9.0,13.0,67,0.00,,,0.00,438,Wunderground v.1.15,2013-01-17 16:39:00,
2013-01-17 10:44:00,28.9,19.3,30.43,NNW,332,10.0,13.0,67,0.00,,,0.00,445,Wunderground v.1.15,2013-01-17 16:44:00,
2013-01-17 10:49:00,28.8,19.2,30.43,NW,323,12.0,12.0,67,0.00,,,0.00,452,Wunderground v.1.15,2013-01-17 16:49:00,
2013-01-17 10:54:00,28.9,19.3,30.43,NW,319,12.0,15.0,67,0.00,,,0.00,457,Wunderground v.1.15,2013-01-17 16:54:00,
2013-01-17 10:59:00,29.0,19.4,30.43,NNW,329,12.0,12.0,67,0.00,,,0.00,464,Wunderground v.1.15,2013-01-17 16:59:00,
2013-01-17 11:09:00,29.0,19.8,30.43,NW,319,13.0,14.0,68,0.00,,,0.00,475,Wunderground v.1.15,2013-01-17 17:09:00,
2013-01-17 11:14:00,29.0,19.8,30.43,NW,323,13.0,14.0,68,0.00,,,0.00,478,Wunderground v.1.15,2013-01-17 17:14:00,
2013-01-17 11:19:00,29.0,19.8,30.43,NW,321,13.0,21.0,68,0.00,,,0.00,485,Wunderground v.1.15,2013-01-17 17:19:00,
2013-01-17 11:29:00,29.2,19.6,30.42,NW,323,12.0,14.0,67,0.00,,,0.00,494,Wunderground v.1.15,2013-01-17 17:29:00,
2013-01-17 11:34:00,29.3,20.0,30.42,NW,325,11.0,14.0,68,0.00,,,0.00,494,Wunderground v.1.15,2013-01-17 17:34:00,
2013-01-17 11:39:00,29.4,19.4,30.42,NNW,346,10.0,10.0,66,0.00,,,0.00,499,Wunderground v.1.15,2013-01-17 17:39:00,
2013-01-17 11:44:00,29.7,19.4,30.41,NW,326,9.0,13.0,65,0.00,,,0.00,501,Wunderground v.1.15,2013-01-17 17:44:00,
2013-01-17 11:49:00,29.8,19.5,30.41,NNW,334,9.0,9.0,65,0.00,,,0.00,504,Wunderground v.1.15,2013-01-17 17:49:00,
2013-01-17 11:54:00,29.9,18.8,30.41,NNW,327,9.0,14.0,63,0.00,,,0.00,504,Wunderground v.1.15,2013-01-17 17:54:00,
2013-01-17 12:04:00,29.8,19.1,30.41,NNW,330,11.0,14.0,64,0.00,,,0.00,508,Wunderground v.1.15,2013-01-17 18:04:00,
2013-01-17 12:09:00,29.8,19.5,30.41,NW,319,10.0,15.0,65,0.00,,,0.00,508,Wunderground v.1.15,2013-01-17 18:09:00,
2013-01-17 12:14:00,29.9,19.6,30.41,NNW,331,10.0,15.0,65,0.00,,,0.00,508,Wunderground v.1.15,2013-01-17 18:14:00,
2013-01-17 12:19:00,30.2,19.5,30.41,NNW,338,9.0,9.0,64,0.00,,,0.00,508,Wunderground v.1.15,2013-01-17 18:19:00,
2013-01-17 12:24:00,30.3,20.3,30.41,NW,317,8.0,17.0,66,0.00,,,0.00,506,Wunderground v.1.15,2013-01-17 18:24:00,
2013-01-17 12:34:00,30.5,19.8,30.41,NNW,327,10.0,12.0,64,0.00,,,0.00,504,Wunderground v.1.15,2013-01-17 18:34:00,
2013-01-17 12:39:00,30.4,19.3,30.41,NW,321,10.0,10.0,63,0.00,,,0.00,501,Wunderground v.1.15,2013-01-17 18:39:00,
2013-01-17 12:44:00,30.3,19.2,30.41,NW,320,11.0,16.0,63,0.00,,,0.00,499,Wunderground v.1.15,2013-01-17 18:44:00,
2013-01-17 12:49:00,30.4,19.3,30.41,NNW,338,11.0,11.0,63,0.00,,,0.00,496,Wunderground v.1.15,2013-01-17 18:49:00,
2013-01-17 12:54:00,30.6,19.9,30.41,NNW,334,10.0,11.0,64,0.00,,,0.00,494,Wunderground v.1.15,2013-01-17 18:54:00,
2013-01-17 12:59:00,30.7,19.2,30.41,NW,323,10.0,10.0,62,0.00,,,0.00,489,Wunderground v.1.15,2013-01-17 18:59:00,
2013-01-17 13:04:00,30.6,19.9,30.41,NNW,327,11.0,14.0,64,0.00,,,0.00,485,Wunderground v.1.15,2013-01-17 19:04:00,
2013-01-17 13:09:00,30.7,20.3,30.41,NNW,333,11.0,11.0,65,0.00,,,0.00,482,Wunderground v.1.15,2013-01-17 19:09:00,
2013-01-17 13:14:00,30.9,20.1,30.41,NW,323,11.0,15.0,64,0.00,,,0.00,475,Wunderground v.1.15,2013-01-17 19:14:00,
2013-01-17 13:19:00,30.9,19.8,30.41,NNW,329,12.0,12.0,63,0.00,,,0.00,469,Wunderground v.1.15,2013-01-17 19:19:00,
2013-01-17 13:24:00,31.0,20.2,30.41,NNW,328,12.0,12.0,64,0.00,,,0.00,466,Wunderground v.1.15,2013-01-17 19:24:00,
2013-01-17 13:29:00,31.2,21.2,30.41,NW,323,11.0,11.0,66,0.00,,,0.00,461,Wunderground v.1.15,2013-01-17 19:29:00,
2013-01-17 13:39:00,31.4,20.6,30.41,NNW,328,12.0,12.0,64,0.00,,,0.00,446,Wunderground v.1.15,2013-01-17 19:39:00,
2013-01-17 13:44:00,31.6,20.8,30.41,NNW,331,11.0,12.0,64,0.00,,,0.00,439,Wunderground v.1.15,2013-01-17 19:44:00,
2013-01-17 13:49:00,31.7,20.5,30.41,NW,325,12.0,13.0,63,0.00,,,0.00,432,Wunderground v.1.15,2013-01-17 19:49:00,
2013-01-17 13:54:00,31.8,20.6,30.41,NW,325,12.0,13.0,63,0.00,,,0.00,424,Wunderground v.1.15,2013-01-17 19:54:00,
2013-01-17 13:59:00,32.0,20.8,30.41,NNW,330,10.0,10.0,63,0.00,,,0.00,417,Wunderground v.1.15,2013-01-17 19:59:00,
2013-01-17 14:09:00,32.3,21.1,30.41,NW,326,9.0,11.0,63,0.00,,,0.00,401,Wunderground v.1.15,2013-01-17 20:09:00,
2013-01-17 14:14:00,32.0,21.2,30.41,NW,318,12.0,15.0,64,0.00,,,0.00,392,Wunderground v.1.15,2013-01-17 20:14:00,
2013-01-17 14:19:00,32.0,21.9,30.40,NW,319,13.0,17.0,66,0.00,,,0.00,381,Wunderground v.1.15,2013-01-17 20:19:00,
2013-01-17 14:24:00,32.1,21.3,30.40,NW,325,11.0,17.0,64,0.00,,,0.00,371,Wunderground v.1.15,2013-01-17 20:24:00,
2013-01-17 14:29:00,32.2,21.7,30.40,NW,320,10.0,11.0,65,0.00,,,0.00,360,Wunderground v.1.15,2013-01-17 20:29:00,
2013-01-17 14:34:00,32.4,22.3,30.41,NW,319,9.0,11.0,66,0.00,,,0.00,352,Wunderground v.1.15,2013-01-17 20:34:00,
2013-01-17 14:44:00,32.5,22.0,30.41,NW,323,8.0,8.0,65,0.00,,,0.00,329,Wunderground v.1.15,2013-01-17 20:44:00,
2013-01-17 14:49:00,32.5,21.7,30.41,NW,323,9.0,9.0,64,0.00,,,0.00,318,Wunderground v.1.15,2013-01-17 20:49:00,
2013-01-17 14:54:00,32.5,21.7,30.41,NW,319,9.0,10.0,64,0.00,,,0.00,306,Wunderground v.1.15,2013-01-17 20:54:00,
2013-01-17 14:59:00,32.4,22.7,30.40,NW,322,10.0,10.0,67,0.00,,,0.00,294,Wunderground v.1.15,2013-01-17 20:59:00,
2013-01-17 15:09:00,32.3,22.2,30.41,NW,320,9.0,9.0,66,0.00,,,0.00,271,Wunderground v.1.15,2013-01-17 21:09:00,
2013-01-17 15:19:00,32.4,23.0,30.41,NW,323,9.0,10.0,68,0.00,,,0.00,243,Wunderground v.1.15,2013-01-17 21:19:00,
2013-01-17 15:24:00,32.4,22.7,30.41,NW,325,9.0,10.0,67,0.00,,,0.00,227,Wunderground v.1.15,2013-01-17 21:24:00,
2013-01-17 15:29:00,32.4,22.7,30.41,NW,324,9.0,9.0,67,0.00,,,0.00,211,Wunderground v.1.15,2013-01-17 21:29:00,
2013-01-17 15:34:00,32.4,22.3,30.42,NNW,328,8.0,9.0,66,0.00,,,0.00,197,Wunderground v.1.15,2013-01-17 21:34:00,
2013-01-17 15:39:00,32.4,22.7,30.42,NW,317,8.0,10.0,67,0.00,,,0.00,179,Wunderground v.1.15,2013-01-17 21:39:00,
2013-01-17 15:44:00,32.4,22.3,30.42,NW,323,8.0,10.0,66,0.00,,,0.00,162,Wunderground v.1.15,2013-01-17 21:44:00,
2013-01-17 15:49:00,32.4,22.3,30.42,NNW,331,7.0,7.0,66,0.00,,,0.00,146,Wunderground v.1.15,2013-01-17 21:49:00,
2013-01-17 15:54:00,32.5,22.4,30.42,NNW,330,6.0,7.0,66,0.00,,,0.00,128,Wunderground v.1.15,2013-01-17 21:54:00,
2013-01-17 15:59:00,32.4,22.3,30.42,NW,325,6.0,7.0,66,0.00,,,0.00,113,Wunderground v.1.15,2013-01-17 21:59:00,
2013-01-17 16:09:00,32.2,22.1,30.43,NW,322,8.0,8.0,66,0.00,,,0.00,84,Wunderground v.1.15,2013-01-17 22:09:00,
2013-01-17 16:14:00,32.1,22.4,30.43,NNW,330,7.0,8.0,67,0.00,,,0.00,70,Wunderground v.1.15,2013-01-17 22:14:00,
2013-01-17 16:24:00,32.0,22.3,30.43,NNW,329,6.0,7.0,67,0.00,,,0.00,46,Wunderground v.1.15,2013-01-17 22:24:00,
2013-01-17 16:29:00,31.9,22.5,30.44,NNW,328,6.0,6.0,68,0.00,,,0.00,35,Wunderground v.1.15,2013-01-17 22:29:00,
2013-01-17 16:34:00,31.8,22.4,30.44,NW,324,6.0,6.0,68,0.00,,,0.00,26,Wunderground v.1.15,2013-01-17 22:34:00,
2013-01-17 16:39:00,31.7,22.0,30.43,NW,324,5.0,5.0,67,0.00,,,0.00,18,Wunderground v.1.15,2013-01-17 22:39:00,
2013-01-17 16:44:00,31.6,22.2,30.43,NW,324,4.0,5.0,68,0.00,,,0.00,14,Wunderground v.1.15,2013-01-17 22:44:00,
2013-01-17 16:49:00,31.5,22.5,30.43,NW,324,3.0,3.0,69,0.00,,,0.00,12,Wunderground v.1.15,2013-01-17 22:49:00,
2013-01-17 16:54:00,31.3,22.6,30.43,NW,324,3.0,6.0,70,0.00,,,0.00,9,Wunderground v.1.15,2013-01-17 22:54:00,
2013-01-17 17:04:00,30.7,22.7,30.43,NW,324,5.0,5.0,72,0.00,,,0.00,5,Wunderground v.1.15,2013-01-17 23:04:00,
2013-01-17 17:09:00,30.4,22.8,30.44,NW,324,5.0,5.0,73,0.00,,,0.00,0,Wunderground v.1.15,2013-01-17 23:09:00,
2013-01-17 17:14:00,30.2,23.2,30.44,NW,324,4.0,5.0,75,0.00,,,0.00,0,Wunderground v.1.15,2013-01-17 23:14:00,
2013-01-17 17:19:00,29.9,23.3,30.44,NW,324,4.0,4.0,76,0.00,,,0.00,0,Wunderground v.1.15,2013-01-17 23:19:00,
2013-01-17 17:29:00,29.5,23.5,30.44,NW,324,3.0,3.0,78,0.00,,,0.00,0,Wunderground v.1.15,2013-01-17 23:29:00,
2013-01-17 17:34:00,29.3,23.3,30.44,NW,324,3.0,3.0,78,0.00,,,0.00,0,Wunderground v.1.15,2013-01-17 23:34:00,
2013-01-17 17:39:00,29.0,23.0,30.45,NW,324,3.0,3.0,78,0.00,,,0.00,0,Wunderground v.1.15,2013-01-17 23:39:00,
2013-01-17 17:44:00,28.8,23.1,30.45,NW,324,3.0,3.0,79,0.00,,,0.00,0,Wunderground v.1.15,2013-01-17 23:44:00,
2013-01-17 17:49:00,28.6,23.2,30.45,NW,324,3.0,3.0,80,0.00,,,0.00,0,Wunderground v.1.15,2013-01-17 23:49:00,
2013-01-17 17:54:00,28.4,23.3,30.45,NW,324,3.0,4.0,81,0.00,,,0.00,0,Wunderground v.1.15,2013-01-17 23:54:00,
2013-01-17 18:04:00,28.1,22.7,30.45,NW,324,3.0,3.0,80,0.00,,,0.00,0,Wunderground v.1.15,2013-01-18 00:04:00,
2013-01-17 18:09:00,28.1,22.4,30.45,NW,324,3.0,3.0,79,0.00,,,0.00,0,Wunderground v.1.15,2013-01-18 00:09:00,
2013-01-17 18:14:00,28.1,22.4,30.45,NW,324,3.0,3.0,79,0.00,,,0.00,0,Wunderground v.1.15,2013-01-18 00:14:00,
2013-01-17 18:19:00,27.9,22.2,30.45,NW,324,2.0,2.0,79,0.00,,,0.00,0,Wunderground v.1.15,2013-01-18 00:19:00,
2013-01-17 18:24:00,27.8,22.4,30.45,NW,324,2.0,3.0,80,0.00,,,0.00,0,Wunderground v.1.15,2013-01-18 00:24:00,
2013-01-17 18:34:00,27.5,22.1,30.44,NW,324,3.0,3.0,80,0.00,,,0.00,0,Wunderground v.1.15,2013-01-18 00:34:00,
2013-01-17 18:39:00,27.3,22.2,30.44,NW,324,3.0,4.0,81,0.00,,,0.00,0,Wunderground v.1.15,2013-01-18 00:39:00,
2013-01-17 18:44:00,27.0,22.2,30.45,NW,324,4.0,4.0,82,0.00,,,0.00,0,Wunderground v.1.15,2013-01-18 00:44:00,
2013-01-17 18:49:00,26.8,22.3,30.45,NW,324,4.0,4.0,83,0.00,,,0.00,0,Wunderground v.1.15,2013-01-18 00:49:00,
2013-01-17 18:54:00,26.6,22.4,30.45,NW,324,3.0,4.0,84,0.00,,,0.00,0,Wunderground v.1.15,2013-01-18 00:54:00,
2013-01-17 18:59:00,26.4,22.5,30.45,NW,324,3.0,4.0,85,0.00,,,0.00,0,Wunderground v.1.15,2013-01-18 00:59:00,
2013-01-17 19:04:00,26.2,22.6,30.45,NW,324,3.0,4.0,86,0.00,,,0.00,0,Wunderground v.1.15,2013-01-18 01:04:00,
2013-01-17 19:09:00,26.1,22.5,30.45,NW,324,4.0,4.0,86,0.00,,,0.00,0,Wunderground v.1.15,2013-01-18 01:09:00,
2013-01-17 19:14:00,26.0,22.4,30.45,NW,324,4.0,4.0,86,0.00,,,0.00,0,Wunderground v.1.15,2013-01-18 01:14:00,
2013-01-17 19:19:00,25.7,22.4,30.46,NW,324,4.0,4.0,87,0.00,,,0.00,0,Wunderground v.1.15,2013-01-18 01:19:00,
2013-01-17 19:24:00,25.4,22.1,30.46,NW,324,3.0,4.0,87,0.00,,,0.00,0,Wunderground v.1.15,2013-01-18 01:24:00,
2013-01-17 19:29:00,25.2,21.9,30.46,NW,324,3.0,4.0,87,0.00,,,0.00,0,Wunderground v.1.15,2013-01-18 01:29:00,
2013-01-17 19:39:00,25.0,21.9,30.46,NW,324,3.0,4.0,88,0.00,,,0.00,0,Wunderground v.1.15,2013-01-18 01:39:00,
2013-01-17 19:44:00,24.9,21.8,30.46,NW,324,4.0,4.0,88,0.00,,,0.00,0,Wunderground v.1.15,2013-01-18 01:44:00,
2013-01-17 19:49:00,24.9,21.8,30.46,NW,324,4.0,4.0,88,0.00,,,0.00,0,Wunderground v.1.15,2013-01-18 01:49:00,
2013-01-17 19:54:00,24.8,21.8,30.46,NW,324,3.0,4.0,88,0.00,,,0.00,0,Wunderground v.1.15,2013-01-18 01:54:00,
2013-01-17 19:59:00,24.6,21.6,30.47,NW,324,3.0,4.0,88,0.00,,,0.00,0,Wunderground v.1.15,2013-01-18 01:59:00,
2013-01-17 20:04:00,24.5,21.5,30.47,NW,324,4.0,4.0,88,0.00,,,0.00,0,Wunderground v.1.15,2013-01-18 02:04:00,
2013-01-17 20:14:00,24.4,21.4,30.46,NW,324,3.0,4.0,88,0.00,,,0.00,0,Wunderground v.1.15,2013-01-18 02:14:00,
2013-01-17 20:19:00,24.3,21.3,30.46,NW,324,1.0,2.0,88,0.00,,,0.00,0,Wunderground v.1.15,2013-01-18 02:19:00,
2013-01-17 20:24:00,24.3,21.3,30.47,NW,324,1.0,3.0,88,0.00,,,0.00,0,Wunderground v.1.15,2013-01-18 02:24:00,
2013-01-17 20:29:00,24.2,21.2,30.46,NW,324,2.0,2.0,88,0.00,,,0.00,0,Wunderground v.1.15,2013-01-18 02:29:00,
2013-01-17 20:34:00,24.0,21.0,30.47,NW,324,2.0,3.0,88,0.00,,,0.00,0,Wunderground v.1.15,2013-01-18 02:34:00,
2013-01-17 20:44:00,23.5,20.5,30.47,NW,324,2.0,2.0,88,0.00,,,0.00,0,Wunderground v.1.15,2013-01-18 02:44:00,
2013-01-17 20:49:00,23.3,20.3,30.47,NW,324,2.0,2.0,88,0.00,,,0.00,0,Wunderground v.1.15,2013-01-18 02:49:00,
2013-01-17 20:54:00,23.1,20.1,30.47,NW,324,2.0,4.0,88,0.00,,,0.00,0,Wunderground v.1.15,2013-01-18 02:54:00,
2013-01-17 20:59:00,23.1,20.3,30.47,NW,324,3.0,3.0,89,0.00,,,0.00,0,Wunderground v.1.15,2013-01-18 02:59:00,
2013-01-17 21:04:00,23.3,20.5,30.47,NW,324,3.0,4.0,89,0.00,,,0.00,0,Wunderground v.1.15,2013-01-18 03:04:00,
2013-01-17 21:09:00,23.3,20.5,30.47,NW,324,3.0,4.0,89,0.00,,,0.00,0,Wunderground v.1.15,2013-01-18 03:09:00,
2013-01-17 21:19:00,23.3,20.3,30.48,NW,324,4.0,4.0,88,0.00,,,0.00,0,Wunderground v.1.15,2013-01-18 03:19:00,
2013-01-17 21:24:00,23.3,20.3,30.48,NW,324,3.0,4.0,88,0.00,,,0.00,0,Wunderground v.1.15,2013-01-18 03:24:00,
2013-01-17 21:29:00,23.2,20.2,30.48,NW,324,3.0,3.0,88,0.00,,,0.00,0,Wunderground v.1.15,2013-01-18 03:29:00,
2013-01-17 21:34:00,23.1,19.8,30.47,NW,324,3.0,3.0,87,0.00,,,0.00,0,Wunderground v.1.15,2013-01-18 03:34:00,
2013-01-17 21:39:00,23.0,19.7,30.47,NW,324,3.0,3.0,87,0.00,,,0.00,0,Wunderground v.1.15,2013-01-18 03:39:00,
2013-01-17 21:49:00,22.8,19.5,30.47,NW,324,3.0,3.0,87,0.00,,,0.00,0,Wunderground v.1.15,2013-01-18 03:49:00,
2013-01-17 21:54:00,22.7,19.4,30.47,NW,324,3.0,3.0,87,0.00,,,0.00,0,Wunderground v.1.15,2013-01-18 03:54:00,
2013-01-17 21:59:00,22.6,19.3,30.48,NW,324,3.0,4.0,87,0.00,,,0.00,0,Wunderground v.1.15,2013-01-18 03:59:00,
2013-01-17 22:09:00,22.5,19.2,30.47,NW,324,2.0,2.0,87,0.00,,,0.00,0,Wunderground v.1.15,2013-01-18 04:09:00,
2013-01-17 22:14:00,22.4,19.1,30.47,NW,324,1.0,2.0,87,0.00,,,0.00,0,Wunderground v.1.15,2013-01-18 04:14:00,
2013-01-17 22:19:00,22.3,19.0,30.47,NW,324,2.0,2.0,87,0.00,,,0.00,0,Wunderground v.1.15,2013-01-18 04:19:00,
2013-01-17 22:24:00,22.3,19.0,30.47,NW,324,2.0,2.0,87,0.00,,,0.00,0,Wunderground v.1.15,2013-01-18 04:24:00,
2013-01-17 22:29:00,22.2,18.9,30.47,NW,324,2.0,2.0,87,0.00,,,0.00,0,Wunderground v.1.15,2013-01-18 04:29:00,
2013-01-17 22:34:00,22.1,18.8,30.47,NW,324,2.0,3.0,87,0.00,,,0.00,0,Wunderground v.1.15,2013-01-18 04:34:00,
2013-01-17 22:39:00,22.1,18.8,30.47,NW,324,2.0,4.0,87,0.00,,,0.00,0,Wunderground v.1.15,2013-01-18 04:39:00,
2013-01-17 22:44:00,22.0,18.7,30.47,NW,324,2.0,4.0,87,0.00,,,0.00,0,Wunderground v.1.15,2013-01-18 04:44:00,
2013-01-17 22:54:00,21.9,18.6,30.47,NW,324,1.0,2.0,87,0.00,,,0.00,0,Wunderground v.1.15,2013-01-18 04:54:00,
2013-01-17 22:59:00,21.9,18.6,30.48,NW,324,1.0,1.0,87,0.00,,,0.00,0,Wunderground v.1.15,2013-01-18 04:59:00,
2013-01-17 23:04:00,21.8,18.5,30.48,NW,324,1.0,2.0,87,0.00,,,0.00,0,Wunderground v.1.15,2013-01-18 05:04:00,
2013-01-17 23:09:00,21.7,18.4,30.48,NW,324,2.0,2.0,87,0.00,,,0.00,0,Wunderground v.1.15,2013-01-18 05:09:00,
2013-01-17 23:14:00,21.6,18.3,30.48,NW,324,3.0,3.0,87,0.00,,,0.00,0,Wunderground v.1.15,2013-01-18 05:14:00,
2013-01-17 23:19:00,21.6,18.3,30.48,NW,324,3.0,3.0,87,0.00,,,0.00,0,Wunderground v.1.15,2013-01-18 05:19:00,
2013-01-17 23:24:00,21.6,18.3,30.47,NW,324,3.0,5.0,87,0.00,,,0.00,0,Wunderground v.1.15,2013-01-18 05:24:00,
2013-01-17 23:29:00,21.6,18.3,30.47,NW,323,4.0,4.0,87,0.00,,,0.00,0,Wunderground v.1.15,2013-01-18 05:29:00,
2013-01-17 23:34:00,21.8,18.5,30.47,NW,323,4.0,4.0,87,0.00,,,0.00,0,Wunderground v.1.15,2013-01-18 05:34:00,
2013-01-17 23:44:00,21.9,18.6,30.47,NW,323,3.0,3.0,87,0.00,,,0.00,0,Wunderground v.1.15,2013-01-18 05:44:00,
2013-01-17 23:49:00,22.0,18.7,30.47,NW,323,3.0,3.0,87,0.00,,,0.00,0,Wunderground v.1.15,2013-01-18 05:49:00,
2013-01-17 23:54:00,22.1,18.6,30.47,NW,323,3.0,4.0,86,0.00,,,0.00,0,Wunderground v.1.15,2013-01-18 05:54:00,
2013-01-17 23:59:00,22.1,18.6,30.47,NW,323,3.0,4.0,86,0.00,,,0.00,0,Wunderground v.1.15,2013-01-18 05:59:00,